Lapse_Rate
5.6 4.9 5.2 5.1 5.2 5.2 5.3 5.6 5.6 5.5 5.7 5.7 5.4 5.2 5.0 5.1 5.0 4.9 4.9 5.0 5.0 4.9
5.5 5.4 4.8 5.5 5.1 5.3 5.4 5.4 5.4 5.5 5.4 5.4 5.4 5.4 5.2 5.3 5.3 5.3 5.3 5.2 5.2 5.2
5.3 5.8 5.4 5.2 5.7 5.4 5.5 5.4 5.3 5.5 5.5 5.5 5.4 5.3 5.2 5.1 5.0 5.0 5.3 5.4 5.3 5.1
6.1 5.5 5.4 5.5 5.3 5.7 5.7 5.6 5.4 5.6 5.5 5.3 5.3 5.2 5.3 5.5 5.3 5.1 5.1 5.2 5.3 5.2
5.4 5.9 6.0 5.9 5.9 6.0 6.0 5.9 6.0 5.8 5.6 5.3 5.4 5.3 5.5 5.5 5.6 5.5 5.5 5.3 5.4 5.2
6.0 6.1 6.1 6.0 5.8 6.0 6.0 5.8 5.2 5.2 5.9 5.9 5.6 5.9 5.6 5.9 5.8 5.9 5.7 5.6 5.6 5.5
5.3 5.9 6.0 5.9 6.1 5.9 5.8 5.8 5.9 6.1 6.2 5.7 5.8 6.1 5.8 5.7 6.2 6.1 6.0 6.0 5.9 5.8
3.8 4.7 5.2 5.6 6.0 5.8 6.0 5.5 5.8 5.8 5.8 5.7 6.1 5.9 5.8 6.0 5.9 6.1 6.0 6.1 5.9 5.7
3.5 3.5 3.8 4.7 4.9 5.4 5.6 6.0 6.0 5.6 5.4 5.7 5.7 5.7 5.9 5.8 6.0 5.7 6.0 5.7 5.3 5.5
3.6 3.6 3.7 3.8 3.9 4.3 5.2 5.3 5.1 5.3 5.1 5.1 5.7 5.5 5.9 5.8 5.7 5.7 5.5 5.4 5.4 5.6
3.6 3.4 3.5 3.4 3.4 3.7 3.5 3.7 4.1 4.0 4.2 4.2 4.8 5.2 5.2 5.7 6.0 5.8 5.8 5.7 5.7 5.6
3.8 3.6 3.4 3.2 3.3 3.5 3.7 3.6 3.7 3.8 3.7 3.7 4.0 4.3 4.6 5.1 5.4 5.5 5.7 5.7 5.5 5.5
3.3 3.8 3.7 3.6 3.4 3.1 3.4 3.5 3.5 3.5 3.5 3.8 4.1 4.0 4.3 4.5 4.7 4.8 5.0 4.8 5.0 5.1
3.6 3.4 3.5 3.8 4.0 3.7 3.5 3.5 3.5 3.3 3.3 3.6 3.6 3.7 3.9 4.0 4.2 4.3 4.4 4.4 4.6 4.8
Wind_Speed
16 6 9 14 13 11 10 10 11 10 9 8 7 8 8 6 5 7 6 8 6 4
14 14 1 1 9 12 12 9 12 12 12 10 11 12 10 8 8 8 5 6 6 4
14 14 10 3 4 6 9 12 14 12 12 11 11 12 12 10 10 10 6 6 8 6
14 14 10 6 5 3 4 10 14 15 14 14 12 10 11 11 11 13 11 9 10 7
16 14 12 9 6 5 6 5 6 11 14 14 13 10 13 14 11 13 11 9 10 10
18 17 13 11 9 5 6 8 6 4 10 14 14 12 10 12 12 12 11 11 10 9
19 17 14 11 7 8 7 9 8 7 4 7 11 12 11 12 12 12 10 9 11 10
17 17 15 14 11 8 7 8 9 11 7 8 10 10 11 12 13 13 14 10 9 8
17 17 16 15 13 9 7 10 9 10 9 8 7 21 23 16 13 12 14 12 9 10
17 17 17 16 14 13 12 10 8 9 8 8 9 23 23 23 12 11 10 11 11 9
17 16 16 16 15 15 10 9 6 7 7 5 8 20 21 21 13 10 10 10 10 11
16 14 15 15 15 13 11 10 11 9 7 6 9 21 22 16 11 11 10 9 9 10
14 13 14 14 13 11 10 10 9 10 10 13 11 19 19 14 7 9 7 8 9 17
14 13 13 12 10 11 10 10 10 9 10 11 8 11 17 16 7 6 6 6 6 7
Wind_Direction
332 295 193 184 168 167 172 170 163 154 154 151 143 139 132 123 120 125 134 141 131 134
343 332 324 274 186 174 161 159 160 158 156 150 148 148 144 145 135 131 129 124 119 105
345 337 336 90 129 178 171 155 156 150 149 142 143 150 145 143 140 136 127 124 119 106
353 350 356 358 88 130 131 172 157 152 145 144 139 138 136 138 140 138 134 131 127 115
356 357 4 359 23 107 136 108 163 157 151 147 137 144 144 141 140 134 131 130 128 130
358 359 358 359 18 48 118 129 114 138 155 146 141 134 142 131 131 124 126 127 123 126
358 354 355 1 9 46 58 94 116 114 130 128 123 127 125 126 125 121 121 122 126 127
354 0 353 3 14 34 57 82 93 98 103 120 135 125 137 126 129 130 119 113 111 114
1 4 357 5 7 24 46 69 80 104 105 104 121 132 133 132 125 132 125 127 121 127
359 3 1 3 4 14 26 49 67 71 103 120 131 133 130 126 119 110 118 121 120 115
355 1 3 5 5 11 16 30 59 72 67 98 134 135 133 115 109 115 114 125 120 126
349 354 2 6 3 3 14 26 41 42 57 79 113 119 111 106 103 109 117 114 119 125
347 352 1 360 3 2 8 22 37 39 39 75 89 102 100 97 105 112 117 121 132 139
349 351 354 357 5 5 11 23 30 40 33 36 65 110 111 111 105 112 122 133 137 147